Location: Peasemore
(51.4833°N, 1.3333°W)
Time: 04:59:34
(UTC+00:00)

Daily predictions for brighter satellites

Satellite Brightness Start Highest point End
(mag) Time Altitude Azimuth Time Altitude Azimuth Time Altitude Azimuth
USA 234 3.9 02:36:33 10° ENE 02:41:14 51° ENE 02:41:14 51° ENE
ADEOS Rocket 4.3 02:51:22 10° ESE 02:56:13 33° ENE 03:01:11 10° N
Cosmos 2344 4.2 02:56:52 43° SE 02:57:49 45° ESE 03:05:17 10° NE
Cosmos 1697 Rocket 4.3 03:03:55 23° N 03:06:14 31° NE 03:11:13 10° ESE
NOSS 3-2 (C) 4.5 03:21:46 33° SE 03:22:47 35° ESE 03:28:34 10° NE
SL-16 R/B 4.2 03:28:04 17° NNW 03:28:04 17° NNW 03:30:30 10° NNE
MSX 4.1 03:21:08 10° NNE 03:26:51 63° ESE 03:26:51 63° ESE
Cosmos 44 Rocket 4.5 03:29:13 40° ESE 03:29:13 40° ESE 03:32:37 10° SE
Cosmos 1980 Rocket 4.0 03:23:46 12° NNW 03:27:53 27° NE 03:32:35 10° E
CZ-4B R/B 4.4 03:27:52 10° E 03:30:02 16° ENE 03:30:16 16° ENE
ADEOS II 3.9 03:27:36 10° N 03:29:27 21° N 03:29:27 21° N
CENTAUR R/B 3.4 03:35:39 36° SSE 03:37:24 44° ESE 03:44:03 10° NE
ARIANE 5 R/B 3.8 03:33:31 10° NNE 03:36:09 31° N 03:36:09 31° N
Tsikada Rocket 4.2 03:42:59 56° NNW 03:42:59 56° NNW 03:48:00 10° N
Resurs 1-4 Rocket 4.4 03:40:24 10° N 03:41:00 12° NNW 03:41:00 12° NNW
ERS-2 4.4 03:46:02 10° SE 03:47:31 21° ESE 03:47:31 21° ESE
CZ-2D R/B 4.4 03:53:16 10° NNW 03:53:32 11° NNW 03:53:32 11° NNW
ALOS 4.5 03:53:15 10° NE 03:57:05 25° E 04:00:54 10° SSE
CZ-2C R/B 2.8 03:59:47 10° NNE 04:04:48 62° ESE 04:07:18 28° S
ISS -0.8 04:07:10 12° SE 04:07:23 12° SE 04:08:36 10° ESE
Cosmos 2142 Rocket 4.3 04:02:06 10° NNW 04:08:17 68° W 04:14:31 10° S
Lacrosse 4 Rocket 2.5 04:08:01 35° SE 04:08:43 38° ESE 04:12:30 10° NE
USA 238 DEB 3.6 04:07:03 49° SW 04:09:04 86° SE 04:16:04 10° NE
USA 238 3.6 04:07:08 49° SW 04:09:10 86° SE 04:16:10 10° NE
GP-B 3.6 04:10:49 50° N 04:10:49 50° N 04:14:07 10° N
PAYLOAD A 4.1 04:04:46 10° NNE 04:09:51 76° ESE 04:12:20 32° S
Cosmos 1833 Rocket 4.2 04:05:11 10° S 04:10:15 35° ESE 04:15:20 10° NE
In-Cosmos 22 4.1 04:09:21 35° S 04:11:40 82° E 04:17:09 10° NNE
NOSS 3-2 (A) 3.3 04:11:54 57° SW 04:13:16 85° NW 04:20:03 10° NE
Cosmos 1302 Rocket 3.9 04:12:05 45° NNW 04:13:44 82° WSW 04:19:01 10° SSE
Cosmos 1025 Rocket 3.1 04:14:23 68° N 04:14:23 68° N 04:18:17 10° N
Spot 4 Rocket 4.4 04:09:36 10° N 04:13:48 47° NW 04:13:48 47° NW
Cosmos 1048 Rocket 4.2 04:15:06 55° NW 04:15:06 55° NW 04:20:08 10° NNE
Cosmos 1674 3.1 04:16:30 59° ESE 04:16:43 61° E 04:20:29 10° NNE
IDEFIX/ARIANE 42P 3.4 04:12:51 10° N 04:16:33 36° NNW 04:16:33 36° NNW
Cosmos 2369 3.9 04:12:59 14° NNW 04:17:52 69° ENE 04:23:29 10° SE
Cosmos 2228 4.2 04:14:12 10° N 04:18:23 42° ENE 04:22:32 10° SE
Cosmos 1269 Rocket 4.3 04:15:37 27° S 04:18:29 68° ESE 04:23:48 10° NNE
Cosmos 494 Rocket 3.9 04:22:50 60° WSW 04:23:29 67° WNW 04:28:46 10° NNE
ATLAS 3B R/B 4.2 04:18:04 10° S 04:23:44 32° ESE 04:29:28 10° NE
Geosat 3.8 04:19:02 10° SSE 04:24:04 74° WSW 04:25:54 40° NW
Meteor 1-16 Rocket 3.9 04:18:56 10° NNW 04:24:13 65° W 04:29:28 10° S
Cosmos 1626 3.8 04:22:37 10° SSE 04:25:58 33° E 04:29:20 10° NNE
USA 234 3.5 04:19:37 10° ENE 04:26:02 59° N 04:28:35 37° WNW
Cosmos 2082 Rocket 4.1 04:24:08 10° SSE 04:28:52 29° ESE 04:33:38 10° NE
COSMO-SKYMED 1 4.0 04:27:11 10° SE 04:31:13 39° ENE 04:35:17 10° N
Cosmos 1656 3.8 04:31:28 43° WNW 04:32:51 52° WSW 04:38:20 10° S
SL-16 R/B 4.1 04:28:23 10° NNW 04:33:10 27° NE 04:37:56 10° E
Cosmos 2279 Rocket 4.0 04:27:46 10° NNW 04:33:46 52° W 04:39:42 10° SSW
Lacrosse 5 rocket 3.0 04:35:54 17° S 04:37:44 26° SE 04:40:54 10° ENE
Meteor 2-5 Rocket 4.5 04:33:57 10° S 04:39:29 55° E 04:45:10 10° NNE
Meteor 1-31 Rocket 4.2 04:36:16 10° NNE 04:40:01 40° E 04:43:45 10° S
ADEOS Rocket 2.9 04:36:24 10° S 04:41:39 46° W 04:47:04 10° NNW
CREW DRAGON DEMO-1 DEB 3.1 04:42:58 65° E 04:42:58 65° E 04:45:38 10° E
SJ-6F 4.5 04:40:15 10° NNE 04:44:22 79° ESE 04:48:28 10° S
COSMOS 2406 3.3 04:41:41 11° SSW 04:47:08 79° ESE 04:52:50 10° NNE
Cosmos 2058 Rocket 4.3 04:45:53 10° N 04:50:14 44° ENE 04:54:31 10° SE
Cosmos 220 Rocket 3.9 04:46:38 14° NNW 04:50:29 85° WSW 04:54:55 10° SSE
Cosmos 1536 Rocket 3.7 04:49:09 37° SW 04:50:33 52° WNW 04:54:58 10° N
Cosmos 1697 Rocket 2.6 04:45:44 14° NW 04:50:39 66° WSW 04:56:16 10° SSE
deb Chang Zheng 4 4.0 04:46:47 10° NNE 04:51:00 61° ESE 04:55:13 10° S
Cosmos 1992 Rocket 3.9 04:49:26 10° NNW 04:54:42 87° WSW 04:59:55 10° SSE
Cosmos 2360 Rocket 4.3 04:55:53 10° NNW 05:00:16 22° NE 05:04:37 10° E
CZ-4B R/B 1.5 04:58:35 10° S 05:01:58 50° W 05:03:23 29° NW
FENGYUN 3A 3.6 04:59:10 10° NNE 05:04:39 90° ENE 05:10:06 10° SSW
Cosmos 1892 Rocket 4.4 05:01:01 10° S 05:05:14 51° E 05:09:30 10° NNE
Cosmos 1400 Rocket 2.9 05:02:49 10° N 05:06:50 78° ENE 05:10:44 10° SSE
CBERS 1 LM4 rocket 4.4 05:02:20 10° N 05:07:14 57° WNW 05:11:57 10° SW
Cosmos 44 Rocket 4.3 05:08:01 27° WSW 05:08:42 27° WSW 05:13:02 10° S
PSLV R/B 4.2 05:07:47 10° N 05:11:39 34° WNW 05:13:12 26° WSW
Cosmos 2344 3.8 05:06:55 22° WSW 05:12:01 58° NNW 05:20:35 10° NE
Cosmos 1980 Rocket 2.1 05:06:54 10° NNW 05:12:32 79° WSW 05:18:07 10° SSE
NOSS 3-2 (C) 3.5 05:09:14 21° WSW 05:13:18 64° NW 05:20:08 10° NE
ARIANE 5 R/B 4.2 05:14:13 10° NNW 05:16:29 14° NW 05:16:29 14° NW
SL-19 R/B 3.5 05:14:22 10° NNE 05:17:13 78° ESE 05:20:02 10° SSW
Cosmos 2251 Rocket 4.0 05:13:35 10° S 05:18:53 65° ESE 05:24:11 10° NNE
SKYMED 2 3.5 05:14:52 10° S 05:19:12 77° WSW 05:23:35 10° NNW
SJ-12 4.2 05:15:28 10° NNE 05:19:37 72° ESE 05:23:42 10° S
ERS-2 3.4 05:19:59 10° SSW 05:22:05 21° WSW 05:22:05 21° WSW
Cosmos 2360 4.4 05:17:48 10° NW 05:23:17 48° WSW 05:28:42 10° S
Cosmos 1461 3.5 05:22:42 10° SSW 05:27:14 68° SE 05:31:58 10° NE
Cosmos 2219 Rocket 4.4 05:23:38 10° NNW 05:27:24 18° NNE 05:31:08 10° ENE
CENTAUR R/B 2.8 05:22:52 16° WSW 05:27:56 59° NW 05:35:22 10° NE
SAR-Lupe-4 4.1 05:25:37 10° SSW 05:28:56 36° W 05:32:18 10° NNW
SL-14 R/B 3.4 05:30:10 10° SSW 05:34:04 53° WNW 05:38:02 10° N
ALOS 2.5 05:30:14 10° N 05:34:45 49° WNW 05:39:15 10° SW
Cosmos 1315 Rocket 3.5 05:31:53 10° N 05:35:58 59° ENE 05:40:01 10° SSE
Cosmos 2278 3.9 05:33:22 10° NW 05:38:51 51° WSW 05:44:16 10° S
Abrixas rocket 3.3 05:38:01 17° WSW 05:39:25 26° SSW 05:41:52 10° SE
Cosmos 1300 3.2 05:36:49 10° NNW 05:40:21 36° W 05:43:51 10° SSW
Aureole 3 3.5 05:37:45 10° NNW 05:41:32 58° W 05:46:18 10° S
Elektron 1 4.4 05:39:39 10° SW 05:42:36 54° SE 05:45:36 10° ENE
CZ-2C R/B 3.5 05:38:39 10° N 05:42:38 24° WNW 05:46:31 10° WSW
Cosmos 1092 Rocket 4.0 05:36:47 10° SSW 05:42:54 65° WNW 05:49:08 10° N
Cosmos 1726 Rocket 4.0 05:38:53 10° NNW 05:43:03 40° W 05:47:13 10° SSW
Cosmos 2322 Rocket 3.0 05:37:32 10° NNW 05:43:08 53° NE 05:48:40 10° SE
ISS -2.8 05:40:18 10° SW 05:43:32 44° SSE 05:46:46 10° E
Cosmos 1689 Rocket 2.8 05:41:19 10° SSW 05:43:59 32° W 05:46:41 10° NNW
PSLV R/B 4.2 05:41:24 10° S 05:45:28 47° W 05:49:34 10° NNW
ADEOS 3.9 05:41:55 10° N 05:46:50 43° WNW 05:51:45 10° SW
USA 290 2.1 05:44:07 10° SSW 05:47:21 75° WNW 05:50:36 10° NNE
Lacrosse 4 Rocket 2.1 05:44:22 13° WSW 05:47:26 32° NW 05:51:09 10° NNE
Nadezhda 4 Rocket 4.4 05:43:48 10° SW 05:49:29 39° WNW 05:55:14 10° N
Cosmos 1484 Rocket 3.6 05:46:53 10° N 05:50:17 29° WNW 05:53:37 10° SW
Cosmos 2098 Rocket 4.3 05:45:23 10° S 05:51:21 59° E 05:56:06 10° NNE
Cosmos 1674 4.4 05:51:24 13° W 05:52:38 15° WNW 05:54:53 10° NNW
Cosmos 1833 Rocket 2.9 05:48:33 10° SW 05:54:02 50° NW 05:59:34 10° NNE
Cosmos 2228 4.1 05:52:12 10° NW 05:55:42 24° W 05:59:11 10° SW
CZ-4B R/B 3.0 05:54:12 10° N 05:58:04 54° WNW 06:02:07 10° SSW
Meteor 1-24 Rocket 3.9 05:53:45 10° SSW 05:59:15 52° WNW 06:04:59 10° N
H-2A R/B 2.9 05:56:24 10° NNE 06:00:14 80° ESE 06:04:04 10° S
S3M 4.2 05:54:06 10° N 06:00:25 83° E 06:06:47 10° S
USA 238 DEB 4.3 05:54:31 10° W 06:00:45 40° NNW 06:07:22 10° NE
USA 238 4.3 05:54:36 10° W 06:00:50 40° NNW 06:07:28 10° NE
Cosmos 1626 3.3 05:58:21 10° WSW 06:01:18 22° WNW 06:04:17 10° NNW
Envisat 3.9 05:56:31 10° NNE 06:01:33 56° E 06:06:32 10° S
Meteor 2-10 Rocket 3.4 05:56:41 10° NNW 06:01:41 70° W 06:06:42 10° S
NOSS 3-2 (A) 4.4 05:59:20 10° W 06:05:02 36° NNW 06:11:35 10° NE
COSMO-SKYMED 1 3.5 06:03:46 10° SSW 06:07:29 27° W 06:11:14 10° NW
USA 234 3.6 06:02:14 10° E 06:08:38 59° N 06:15:03 10° WNW
Cosmos 407 Rocket 4.2 06:03:56 10° S 06:08:57 60° ESE 06:14:03 10° NNE
Cosmos 2082 Rocket 2.3 06:07:06 10° SW 06:12:38 59° NW 06:18:13 10° NNE
ATLAS 3B R/B 2.6 06:07:21 10° SW 06:13:56 73° NW 06:20:41 10° NE
Meteor 2-1 Rocket 4.3 06:08:35 10° NNW 06:14:11 68° W 06:19:53 10° S
Meteor 1-31 Rocket 3.9 06:11:04 10° N 06:14:15 23° WNW 06:17:24 10° WSW
Cosmos 1140 Rocket 4.3 06:12:10 10° S 06:17:11 57° ESE 06:22:13 10° NNE
SL-16 R/B 2.2 06:12:13 10° NNW 06:17:56 80° WSW 06:23:36 10° SSE
